Location: Callanans Corners
(42.5326°N, 73.8846°W)
Time: 18:12:52
(UTC+00:00)

YAOGAN 1 - Pass Details

Date: 06 October 2022
Orbit: 617 x 619 km, 97.9° (Epoch: 05 December)

Event Time Altitude Azimuth Distance (km) Brightness Sun altitude
Rises 23:23:47 0° 155° (SSE) 2,878 5.7 -11.1°
Reaches altitude 10° 23:25:59 10° 150° (SSE) 1,977 4.8 -11.5°
Maximum altitude 23:30:11 55° 73° (ENE) 747 2.6 -12.2°
Drops below altitude 10° 23:34:25 10° 356° (N) 1,994 5.3 -13.0°
Sets 23:36:39 0° 352° (N) 2,905 6.2 -13.4°
